Location: ??
(35.5653°N, 139.6194°E)
Time: 02:10:39
(UTC+00:00)

COSMOS 2455 - Pass Details

Date: 20 November 2019
Orbit: 902 x 908 km, 67.1° (Epoch: 13 December)

Event Time Altitude Azimuth Distance (km) Brightness Sun altitude
Exits shadow 18:40:26 33° 23° (NNE) 1,478 4.0 -32.7°
Maximum altitude 18:42:03 39° 57° (ENE) 1,326 4.0 -32.4°
Drops below altitude 10° 18:47:38 10° 126° (SE) 2,580 5.9 -31.2°
Sets 18:50:17 0° 133° (SE) 3,516 6.6 -30.7°
